Location: Observatoire
(46.1952°N, 5.3391°E)
Time: 06:22:54
(UTC+01:00)

Altair - Visible Passes

Search period start: 18 February 2026 00:00
Search period end: 28 February 2026 00:00
Orbit: 1502 x 1682 km, 47.2° (Epoch: 17 February)

Date Brightness Start Highest point End Pass type
(mag) Time Alt. Az. Time Alt. Az. Time Alt. Az.
18 Feb 8.4 04:06:18 31° SSE 04:08:18 34° SE 04:16:22 10° ENE visible
18 Feb 7.6 06:04:20 16° WSW 06:12:02 77° SSE 06:21:32 10° ENE visible
19 Feb 8.4 03:42:41 31° SE 03:43:11 32° SE 03:51:01 10° ENE visible
19 Feb 7.5 05:40:43 24° SW 05:46:49 74° SSE 05:56:16 10° ENE visible
20 Feb 8.6 03:18:59 28° SE 03:18:59 28° SE 03:25:38 10° ENE visible
20 Feb 7.5 05:17:00 34° SW 05:21:37 71° SSE 05:31:00 10° ENE visible
21 Feb 8.9 02:55:13 24° ESE 02:55:13 24° ESE 03:00:15 10° E visible
21 Feb 7.5 04:53:15 44° SW 04:56:26 68° SSE 05:05:44 10° ENE visible
21 Feb 7.6 06:51:47 10° W 07:01:06 85° N 07:10:45 10° E visible
22 Feb 9.1 02:31:25 19° E 02:31:25 19° E 02:34:50 10° E visible
22 Feb 7.5 04:29:25 55° SSW 04:31:15 64° SSE 04:40:28 10° ENE visible
22 Feb 7.5 06:27:26 14° W 06:35:51 85° N 06:45:27 10° E visible
23 Feb 9.4 02:07:33 15° E 02:07:33 15° E 02:09:22 10° E visible
23 Feb 7.5 04:05:33 60° SSE 04:06:04 61° SSE 04:15:12 10° ENE visible
23 Feb 7.5 06:03:34 20° W 06:10:35 86° N 06:20:09 10° E visible
24 Feb 9.6 01:43:39 11° E 01:43:39 11° E 01:43:52 10° E visible
24 Feb 7.7 03:41:39 56° SE 03:41:39 56° SE 03:49:56 10° ENE visible
24 Feb 7.4 05:39:39 28° W 05:45:20 87° N 05:54:52 10° E visible
25 Feb 8.0 03:17:43 47° ESE 03:17:43 47° ESE 03:24:40 10° ENE visible
25 Feb 7.4 05:15:43 37° W 05:20:05 88° N 05:29:35 10° E visible
26 Feb 8.3 02:53:45 38° E 02:53:45 38° E 02:59:24 10° ENE visible
26 Feb 7.3 04:51:45 48° WSW 04:54:51 90° NNW 05:04:18 10° E visible
26 Feb 7.6 06:50:30 10° W 06:59:48 89° NNE 07:09:25 10° ESE visible
27 Feb 8.7 02:29:45 29° E 02:29:45 29° E 02:34:08 10° ENE visible
27 Feb 7.3 04:27:46 63° WSW 04:29:37 88° SSE 04:39:02 10° ENE visible
27 Feb 7.5 06:25:46 12° W 06:34:34 88° NNE 06:44:08 10° E visible
